FREGAT DEB, 40078

Orbit data source: Space-Track

FREGAT DEB, 40078 is space debris in SSO originally from a launch on Tue, 08 Jul 2014 UTC launched from the Tyuratam Missile And Space Complex (TTMTR). Debris objects in space refer to the collection of defunct objects orbiting the Earth. Examples of debris include non-operational satellites, rocket bodies, and fragments generated from explosions, collisions, or faulty payload assembly.

Loading next visibility...
Identifier
40078, 2014-037K
Orbit
SSO
Country
Flag of CISCIS
Related business
Manufacturer
Lavochkin
Mission
Spacecraft
Bus & Motor
Unknown
Mass
Unknown
Launch date (UTC)
2014-07-08 (11 years ago)
Launch vehicle
Unknown
Launch site
Tyuratam Missile And Space Complex (TTMTR)
Object type
Payload
Rocket body
Debris
Shape & HBR
Irr + 1 Truss, 1.5 m
Radar Cross Section
7.500 m², Large (>1 m²)

Expand to show TLE details & history
Last TLE update: 6 hours ago

TLE from 6 hours ago
0 FREGAT DEB
1 40078U 14037K   25353.84098481  .00000466  00000-0  10651-3 0  9996
2 40078  98.0481 332.9162 0129528 264.1776  94.4644 14.55400288607031
Epoch: 2025-12-19T20:11Z
TLE epoch observation values (Epoch: 2025-12-19T20:11:01.087Z)
Latitude
-0.00003°
Longitude
-58.51468°
Altitude
719.375 km
Speed
7.491 km/s
True Right ascension
22h 11m 39s
True Declination
0° 00' 00"
Sunlit
Object was in daylight at epoch
Visualization orbit readout
Latitude
Unknown
Longitude
Unknown
Altitude
Unknown
Speed
Unknown
Apparent Right ascension
Unknown
Apparent Declination
Unknown
Sunlit
N/A
Visualization observer readout
Local Sidereal Time
00:43:31
Azimuth
Unknown
Elevation
Unknown
Doppler factor
Unknown
Orbital elements
Apogee altitude
796.893 km
Perigee altitude
613.397 km
Semi-major axis
7,083.282 km
Eccentricity
0.01295
Inclination
98.0481°
RAAN
332.9162°
Arg. of periapsis
264.1776°
True anomaly
95.94215°
Mean anomaly
94.4644°
Eccentric anomaly
95.20348°
Mean motion
3.64075 °/min
Orbital period
98.88 mins
BSTAR
0.00010651
Loading maneuver chart data...
Computing Atmospheric mass density...
Loading historical data...
Loading historical data...
Loading historical data...
Loading historical data...
Loading historical data...
Loading historical data...
Loading historical data...

Documentation

Showing up to 5 results
|